Miscellaneous Local Product
Issued by NWS North Platte, NE

Home | Current Version | Previous Version | Text Only | Print | Product List | Glossary Off
Versions: 1 2 3 4 5 6 7 8 9 10 11 12 13 14 15 16 17 18 19 20 21 22 23 24 25 26 27 28 29 30 31 32 33 34 35 36 37 38 39 40 41 42 43 44 45 46 47 48 49 50

000
AXUS43 KLBF 191610
MISLBF


WESTERN AND NORTH CENTRAL NEBRASKA HOURLY WEATHER ROUNDUP
NATIONAL WEATHER SERVICE NORTH PLATTE NE
1000 AM CST FRI DEC 19 2014

***STATIONS NOT REPORTING VARIABLES SUCH AS SKY/WEATHER OR
PRESSURE ARE PROVIDED BY THE NEBRASKA DEPARTMENT OF
ROADS...RAWS...AND APRS NETWORKS...AND ARE NOT UNDER
NATIONAL WEATHER SERVICE QUALITY CONTROL***

...OBSERVATIONS IN AND NEAR THE EASTERN PANHANDLE OF NEBRASKA...

CITY           SKY/WX    TMP DP  RH WIND       PRES   REMARKS
PINE RIDGE     SUNNY     30  19  63 W9        30.01F WCI  22
CHADRON        SUNNY     22  16  78 W5        30.03F WCI  16
ALLIANCE       SUNNY     10   7  87 W5        30.03F WCI   2
SIDNEY         SUNNY     26  15  63 W13       30.07S WCI  15
WHITECLAY        N/A     33  17  53 W6          N/A  WCI  27
CRESCENT LAKE    N/A     26  21  82 CALM        N/A
LISCO            N/A     30  23  74 W3          N/A
BIG SPRINGS      N/A     21  18  87 W12         N/A  WCI   9
$$

...OBSERVATIONS IN NORTH CENTRAL NEBRASKA...

CITY           SKY/WX    TMP DP  RH WIND       PRES   REMARKS
VALENTINE      SUNNY     23  19  85 SW9       30.03F WCI  13
THEDFORD       SUNNY     23  22  93 CALM      30.07R
AINSWORTH      MOSUNNY   19  15  87 S3        30.04S
O`NEILL        FOG       26  26 100 S6        30.10S VSB 1/2 WCI  19
BROKEN BOW     MOSUNNY   23  22  96 SW5       30.09S FOG     WCI  17
BROWNLEE         N/A     19  14  79 CALM        N/A
SPRINGVIEW       N/A     16  14  90 CALM        N/A
BREWSTER         N/A     21  19  93 S3          N/A
ROSE             N/A     24  24 100 MISG        N/A
SARGENT          N/A     24  23  95 CALM        N/A
COMSTOCK         N/A     30  30 100 SW6         N/A  WCI  24
CHAMBERS         N/A     26  25  96 CALM        N/A
$$

...OBSERVATIONS IN SOUTHWEST NEBRASKA AND FAR NORTHEAST COLORADO...

CITY           SKY/WX    TMP DP  RH WIND       PRES   REMARKS
WRAY           PTSUNNY   23  20  89 SW7       30.12S WCI  14
IMPERIAL       SUNNY     23  19  85 W3        30.11R
OGALLALA       SUNNY     19  16  88 W8        30.09S WCI   9
NORTH PLATTE   SUNNY     22  17  81 NW5       30.10S HAZE    WCI  16
MCCOOK         SUNNY     22  20  92 SW7       30.13S FOG     WCI  13
LEXINGTON      FOG       25  24  96 SW3       30.12F VSB 1/4
PAXTON           N/A     20  17  89 W3          N/A
BRADY            N/A     17  15  91 CALM        N/A
GOTHENBURG       N/A     25  22  86 CALM        N/A
CALLAWAY         N/A     27  26  97 CALM        N/A
$$

...NORTH PLATTE AREA...

CITY           SKY/WX    TMP DP  RH WIND       PRES   REMARKS
AIRPORT        SUNNY     22  17  81 NW5       30.10S HAZE    WCI  16
DOWNTOWN         N/A     22  19  88 CALM        N/A
$$

...SOME WEATHER OBSERVATIONS FROM AROUND THE REGION...

CITY           SKY/WX    TMP DP  RH WIND       PRES   REMARKS
DENVER         MOSUNNY   31  23  72 SW9       30.10R WCI  23
LARAMIE        MOSUNNY   24  14  65 SW21      30.06S WCI   9
CHEYENNE       SUNNY     32  14  47 W20G29    30.05S WCI  20
SCOTTSBLUFF    SUNNY      8   5  87 CALM      30.06S
RAPID CITY     SUNNY     34  23  64 CALM      29.98R
PIERRE         CLOUDY    20  17  88 CALM      30.02S FOG
WINNER         FAIR      25  16  68 SW9       30.04R WCI  15
SIOUX FALLS    CLOUDY    29  27  92 S15       30.15S WCI  18
OMAHA          CLOUDY    32  29  88 S9        30.25R FOG     WCI  24
GRAND ISLAND   CLOUDY    30  27  88 SW7       30.16S FOG     WCI  23
KANSAS CITY    DRIZZLE   30  29  96 SE6       30.28R FOG     WCI  24
WICHITA        CLOUDY    32  29  88 S6        30.26R FOG     WCI  26
HAYS           CLOUDY    36  27  69 S9        30.19R WCI  29
LIBERAL        CLOUDY    37  32  81 S3        30.20R
GOODLAND       CLOUDY    32  27  81 W10       30.14R WCI  24
$$



USA.gov is the U.S. government's official web portal to all federal, state and local government web resources and services.